Content
SEND FEEDBACK

Daily
Averages
Monthly
Summary
United States of America

ST. LOUIS, MISSOURI


Home > North America > United States > Missouri
Elevation: 163 meters     Latitude: 38 45N     Longitude: 090 22W

WEATHER
 
SELECT A DAY
Number of Records: 196,446;   Date Range: 1/1/95 - 8/12/14
 
SHARE

PRINT THIS DATA

[ ← Previous Day ]
WEATHER ALMANAC - 20 JANUARY, 2013
[ Next Day → ]
[ °F ]   °C
Weather ElementAverageHighLow
Temperature-0.3 °C5 °C (1:54 am)-4.4 °C (11:54 pm)
Dewpoint-10.7 °C-2 °C (1:54 am)-13.3 °C (8:54 am)
Humidity47.1 %69 % (5:54 am)33 % (1:54 pm)
Barometer1026.4 hPa1028.4 hPa (8:54 am)1022.7 hPa (1:54 am)
Wind Speed13 km/h24.1 km/h (2:54 am)
Wind Gust31.5 km/h (1:54 am)
Weather ElementAverage
Visibility16.1 km
Wind DirectionW (268.7 °)

Weather ElementTotal
Precipitation---
Heating Degree Days18.1 (Base 18.3)
Averaged from 23 records on 20 January, 2013
WEATHER CONDITIONS BREAKOUT
WIND DIRECTION BREAKOUT
WEATHER BY HOUR - 20 JANUARY, 2013
[ °F ]   °C
Local TimeTemperatureDewpointHumidityBarometerVisibilityWind DirectionWind SpeedGust SpeedPrecipitationEventsConditions
1:54 AM5 °C-2 °C61 %1022.7 hPa16.1 kmNNW (330°)22.2 km/h31.5 km/hClear
2:54 AM4.4 °C-6.1 °C47 %1023.4 hPa16.1 kmWNW (300°)24.1 km/hClear
3:54 AM2.8 °C-6.7 °C50 %1024.4 hPa16.1 kmNW (320°)16.7 km/hClear
4:54 AM1.1 °C-7.8 °C52 %1025.1 hPa16.1 kmNorth (350°)18.5 km/h27.8 km/hClear
5:54 AM-1.1 °C-6.1 °C69 %1026.4 hPa16.1 kmNorth (350°)13 km/hClear
6:54 AM-2.2 °C-8.3 °C63 %1027.1 hPa16.1 kmNorth (350°)9.3 km/hClear
7:54 AM-2.2 °C-11.1 °C51 %1027.8 hPa16.1 kmNorth (360°)11.1 km/hScattered Clouds
8:54 AM-1.7 °C-13.3 °C41 %1028.4 hPa16.1 kmNorth (350°)13 km/hPartly Cloudy
9:54 AM-1.1 °C-13.3 °C40 %1028.4 hPa16.1 kmNNE (30°)5.6 km/hClear
10:54 AM0 °C-12.2 °C40 %1028.1 hPa16.1 kmNW (310°)5.6 km/hPartly Cloudy
11:54 AM1 °C-12 °C38 %1026.1 hPa16.1 kmCalmScattered Clouds
12:54 PM1.7 °C-12.2 °C35 %1026.4 hPa16.1 kmNW (310°)14.8 km/hScattered Clouds
1:54 PM1.7 °C-13.3 °C33 %1026.8 hPa16.1 kmNNW (340°)14.8 km/hMostly Cloudy
2:54 PM2 °C-13 °C33 %1025.4 hPa16.1 kmNNE (20°)14.8 km/hClear
3:54 PM0 °C-12.2 °C40 %1026.8 hPa16.1 kmNorth (360°)14.8 km/hMostly Cloudy
4:54 PM-0.6 °C-12.8 °C40 %1027.1 hPa16.1 kmNorth (10°)13 km/hMostly Cloudy
5:54 PM-1.1 °C-12.2 °C43 %1026.8 hPa16.1 kmNNE (20°)5.6 km/hMostly Cloudy
6:54 PM-1.7 °C-11.1 °C49 %1026.8 hPa16.1 kmNorth (360°)9.3 km/hMostly Cloudy
7:54 PM-2.2 °C-10.6 °C53 %1027.1 hPa16.1 kmNorth (360°)14.8 km/hMostly Cloudy
8:54 PM-2.8 °C-11.7 °C51 %1027.1 hPa16.1 kmNorth (360°)13 km/hMostly Cloudy
9:54 PM-2.8 °C-11.7 °C51 %1027.4 hPa16.1 kmNNW (340°)16.7 km/hOvercast
10:54 PM-3.3 °C-12.2 °C51 %1027.4 hPa16.1 kmNNW (330°)16.7 km/hOvercast
11:54 PM-4.4 °C-12.8 °C53 %1027.4 hPa16.1 kmNW (320°)11.1 km/hPartly Cloudy
Hourly data recorded from KSUS, located 0 kilometers away from St. Louis, Missouri







STORIES FROM OUR PARTNERS